CAPE
411 1064 1158 1492 1986 1617 1249 956 841 785 700 889 1439 1448 1298 207 211 293 280 305 328 377 359 381 214 50 23 28 94 216 454 563 503
690 1100 1138 1594 2224 2074 1424 1217 1073 863 1243 2190 2094 1482 356 113 303 353 356 265 263 264 238 217 323 161 40 21 16 6 0 26 36
947 1218 1500 2363 2572 2554 2529 2334 2057 1964 2330 1990 1170 318 114 90 197 270 312 346 335 231 264 308 367 385 164 29 7 3 0 42 86
1118 1428 1564 2088 2181 2067 2403 2478 2434 2095 1643 1222 724 550 390 115 155 375 425 417 492 320 311 356 515 518 357 234 14 10 19 51 31
1516 1496 1611 1718 1521 1582 1872 1804 1969 1996 1684 1456 1244 1044 987 745 308 268 99 86 112 88 51 123 47 388 523 493 141 61 18 4 0
1499 1501 1398 1076 621 546 1327 1133 1144 1228 1597 1675 1427 1138 451 52 1 0 0 0 0 0 0 0 0 0 0 143 187 107 35 6 0
1513 1404 1218 957 593 675 998 959 730 501 605 1154 1189 867 393 0 0 0 0 0 0 0 0 0 0 0 0 0 324 345 111 124 202
1291 1237 1129 1020 553 221 631 533 419 325 439 792 165 244 174 8 96 19 0 0 0 14 10 16 12 0 0 0 0 93 0 0 2
982 1121 1027 653 319 393 6 4 299 463 912 1209 243 114 132 361 186 11 0 14 0 16 14 1 0 0 0 0 0 0 0 0 0
798 885 998 568 89 0 1 322 571 540 948 963 39 8 64 167 11 4 15 56 103 5 0 0 0 0 0 0 0 0 0 0 0
810 951 593 11 0 0 9 300 335 865 530 252 55 19 0 28 82 30 143 163 12 0 0 0 0 0 0 0 0 0 0 0 0
594 366 85 33 0 21 82 58 813 740 256 44 44 41 133 150 30 57 16 0 0 0 0 0 0 0 0 0 0 0 0 0 0
310 93 11 147 428 342 541 653 836 615 405 270 360 502 220 205 19 9 6 0 0 0 0 0 0 0 0 0 0 0 0 0 0
43 0 0 0 35 585 388 467 667 556 266 56 28 34 8 0 0 0 0 0 0 0 0 0 0 0 0 0 0 0 0 0 0
0 0 29 20 22 3 114 301 106 0 0 0 0 0 0 0 0 0 0 0 0 0 0 0 0 2 0 3 0 0 0 0 0
0 0 5 83 0 0 0 0 0 0 0 0 0 0 0 0 0 0 0 0 0 0 0 0 0 0 0 1 6 8 0 0 0
1 0 10 0 0 0 0 0 0 0 0 0 0 0 0 0 0 0 0 0 0 0 0 0 0 3 3 1 1 3 11 9 3
0 0 0 0 0 0 0 0 0 0 0 0 0 0 0 0 0 0 0 0 1 0 2 1 2 3 2 9 6 2 0 0 0
0 0 0 0 0 0 0 0 0 0 0 0 0 0 0 0 0 0 0 0 0 1 0 0 0 0 0 1 0 0 0 0 0
0 0 0 0 0 0 0 0 0 0 0 0 0 0 0 0 0 0 0 0 1 1 0 0 0 0 0 0 0 0 0 0 0
CIN
-123 -94 -97 -106 -110 -160 -191 -258 -294 -271 -253 -175 -127 -108 -105 -228 -197 -139 -130 -131 -115 -92 -73 -34 -56 -101 -93 -36 -1 -26 0 -1 0
-98 -86 -115 -112 -106 -135 -188 -222 -224 -232 -183 -77 -65 -97 -225 -238 -172 -141 -114 -116 -109 -92 -77 -66 -26 -29 -55 -46 -52 -19 0 -42 -44
-102 -103 -123 -79 -98 -100 -78 -55 -95 -116 -55 -55 -126 -224 -235 -211 -167 -141 -114 -79 -63 -69 -50 -41 -35 -6 -2 -28 -49 -31 0 -15 -12
-122 -112 -152 -133 -141 -152 -87 -49 -20 -40 -66 -94 -117 -149 -162 -183 -160 -86 -53 -39 -33 -40 -35 -25 -14 -9 -5 -2 -33 -9 -9 -3 -12
-158 -161 -192 -171 -180 -186 -146 -129 -70 -24 -34 -42 -63 -68 -62 -58 -71 -51 -86 -84 -74 -101 -122 -68 -74 -15 -6 -1 -18 -13 -10 -23 0
-191 -224 -247 -272 -337 -311 -196 -192 -169 -119 -61 -39 -46 -59 -79 -123 -14 0 0 0 0 0 0 0 0 0 0 -19 -13 -14 -22 -13 0
-221 -267 -293 -296 -287 -241 -163 -127 -171 -186 -163 -76 -58 -60 -80 0 0 0 0 0 0 0 0 0 0 0 0 0 -11 -9 -21 -11 -10
-295 -302 -298 -262 -246 -207 -174 -188 -116 -159 -190 -92 -113 -97 -87 -62 -75 -100 0 0 0 -41 -28 -23 -35 0 0 0 0 -21 0 0 -13
-305 -335 -305 -265 -192 -193 -248 -155 -162 -141 -120 -64 -105 -82 -61 -57 -60 -76 -2 -140 -1 -40 -38 -11 0 0 0 0 0 0 0 0 0
-298 -372 -286 -219 -207 0 -227 -213 -162 -140 -104 -81 -151 -64 -126 -77 -79 -88 -65 -101 -103 -9 0 0 0 0 0 0 0 0 0 0 0
-377 -349 -265 -85 0 0 -170 -224 -197 -130 -133 -121 -162 -109 0 -65 -114 -91 -77 -37 -32 0 0 0 0 0 0 0 0 0 0 0 0
-370 -285 -382 -417 0 -281 -305 -275 -146 -119 -135 -137 -112 -75 -63 -69 -95 -60 -44 0 0 0 0 0 0 0 0 0 0 0 0 0 0
-358 -382 -372 -305 -264 -277 -227 -177 -118 -120 -99 -92 -69 -65 -85 -76 -97 -83 -64 0 0 0 0 0 0 0 0 0 0 0 0 0 0
-435 0 0 0 -190 -171 -219 -186 -151 -128 -149 -133 -110 -154 -144 0 0 0 0 0 0 0 0 0 0 0 0 0 0 0 0 0 0
-98 0 -19 -136 -134 -111 -265 -202 -209 0 0 0 0 0 0 0 0 0 0 0 0 0 0 0 0 -1 -1 -1 -1 0 0 0 0
-134 0 -17 -199 0 0 0 0 0 0 0 0 0 0 0 0 0 0 0 0 0 0 0 0 0 0 0 -2 -2 -2 0 0 0
-148 0 -188 0 0 0 0 0 0 0 0 0 0 0 0 0 0 0 0 0 0 0 0 -1 -2 -1 -1 -1 -2 -2 -1 -1 -1
0 0 0 0 0 0 0 0 0 0 0 0 0 0 0 0 0 0 0 0 -1 -1 -1 -1 -1 -1 -1 0 0 -1 0 0 0
0 0 0 0 0 0 0 0 0 0 0 0 0 0 0 0 0 0 0 -1 0 -1 0 0 0 0 0 -2 0 0 0 0 0
0 0 0 0 0 0 0 0 0 0 0 0 0 0 0 0 0 0 -1 0 -1 0 0 -2 -3 0 0 0 0 0 0 0 0
Wind_Speed
10 9 12 15 16 17 17 15 16 16 15 15 15 15 15 15 14 13 12 13 12 12 12 11 22 33 27 22 11 6 10 15 12
15 7 11 14 15 16 16 16 16 15 16 16 15 16 16 15 15 15 15 13 8 6 9 11 10 18 19 20 13 12 14 15 18
12 8 10 12 15 16 16 17 16 15 14 15 15 15 14 14 15 19 18 15 13 9 10 13 13 14 15 15 13 8 13 11 15
15 13 12 12 14 15 16 16 15 15 14 14 14 15 15 15 16 17 18 18 19 20 21 21 24 15 15 15 14 12 9 15 17
14 12 11 12 13 13 13 13 14 13 13 12 13 15 18 18 18 17 18 20 24 26 28 27 28 28 21 12 12 10 9 9 13
12 12 12 12 13 12 10 10 11 11 12 13 13 14 16 18 18 20 21 22 23 25 28 29 29 28 27 24 20 8 7 9 8
11 9 8 7 8 13 10 8 8 7 10 12 11 11 13 16 18 19 20 22 22 24 26 27 28 29 28 27 26 24 17 9 3
10 9 8 6 6 8 10 10 9 10 11 5 7 9 11 12 15 17 18 22 24 26 28 28 28 28 28 27 27 24 24 23 20
9 7 6 6 6 9 10 12 12 12 11 7 7 10 12 16 16 19 22 24 25 26 28 30 31 32 30 28 25 29 31 29 26
5 7 8 6 9 12 10 11 12 11 9 7 7 11 13 16 21 23 23 21 21 24 27 29 32 33 32 30 28 28 30 31 31
3 7 7 4 10 11 10 10 11 10 9 8 9 13 16 20 22 26 24 23 27 28 29 32 33 32 30 29 28 29 30 32 30
5 2 3 7 10 11 10 11 12 11 10 10 11 15 18 21 24 25 25 28 30 29 30 32 33 32 30 29 28 28 33 33 33
9 11 14 14 14 13 11 11 12 12 13 15 19 21 23 24 26 27 29 31 32 32 32 33 33 32 31 30 29 31 34 34 34
10 14 19 17 17 14 13 12 13 14 16 20 22 23 24 26 28 29 31 33 33 34 34 34 33 32 31 30 29 32 34 34 35
11 18 23 12 12 13 15 15 16 17 20 23 24 26 27 28 29 31 33 35 35 35 35 36 35 34 32 30 32 33 34 35 35
12 11 4 8 11 13 16 18 18 21 24 26 28 29 31 32 33 34 33 34 35 36 35 35 35 35 35 34 32 33 34 35 35
14 11 9 10 11 14 17 20 22 24 27 30 31 31 32 32 32 33 33 33 33 34 34 35 35 35 35 36 35 35 34 35 36
11 11 11 11 13 16 18 20 23 27 30 32 31 30 30 31 30 32 33 32 32 32 32 33 34 34 35 37 36 35 41 41 39
10 10 10 12 13 16 19 23 27 30 31 31 30 30 30 30 31 31 32 32 33 29 29 31 33 35 36 37 38 40 41 41 42
9 10 11 13 15 19 22 24 27 29 29 29 30 30 30 29 30 31 32 33 34 35 34 33 33 34 36 38 40 41 41 44 42
Wind_Direction
93 19 19 25 43 50 70 84 90 91 95 96 84 87 82 71 67 70 60 51 49 43 42 44 28 354 11 2 360 298 276 277 284
120 29 15 39 46 44 51 64 67 69 74 78 75 83 84 76 58 48 42 46 56 56 48 40 41 36 39 28 39 343 298 293 287
111 56 17 17 31 31 33 39 46 47 55 60 67 64 67 65 47 23 27 40 49 59 58 49 45 48 49 56 49 41 329 325 303
120 98 77 58 42 42 44 44 39 38 44 48 49 46 43 44 41 35 32 35 34 35 33 34 28 49 47 49 56 60 31 334 316
116 102 85 70 51 46 40 32 31 35 27 22 23 20 23 27 37 47 43 35 25 19 14 17 17 19 35 49 50 61 68 38 356
117 108 95 82 56 49 48 42 30 27 27 356 1 20 30 37 42 39 34 29 28 24 12 8 10 13 15 20 25 53 68 71 66
126 121 112 95 49 32 53 42 18 14 354 341 355 26 33 38 38 32 28 26 25 19 14 10 6 4 4 3 4 6 18 28 45
114 119 116 101 61 48 24 23 31 82 73 31 5 15 20 38 32 25 21 11 5 2 2 2 0 358 355 353 351 352 348 347 351
132 128 122 100 72 25 33 62 69 56 65 55 17 9 15 2 7 4 355 354 357 358 356 354 352 349 349 348 347 336 323 324 328
154 133 133 106 30 24 62 62 55 39 55 49 22 356 359 354 348 346 350 355 360 358 356 353 350 347 345 344 343 339 329 321 315
158 142 130 28 0 23 48 34 31 37 46 31 9 355 350 345 340 340 342 347 345 345 345 342 342 344 345 344 342 338 332 326 323
307 320 329 352 8 11 12 15 14 13 12 9 359 350 346 344 343 341 341 339 338 341 340 338 337 338 339 339 339 336 327 324 319
307 303 309 328 346 350 4 10 13 7 358 349 341 343 342 343 340 337 335 334 334 335 334 332 332 333 332 332 331 328 324 322 316
340 319 300 308 314 337 355 9 14 6 359 347 343 343 343 341 337 335 335 334 334 333 332 331 331 330 329 328 328 325 322 320 314
353 330 272 321 355 3 5 16 17 4 352 349 348 346 343 340 338 336 334 332 331 331 331 329 329 329 329 329 326 323 321 317 313
18 1 98 7 42 17 12 6 4 352 352 349 345 342 339 337 335 334 335 334 333 332 333 331 329 328 327 327 329 326 324 319 315
24 61 61 46 32 17 5 0 356 354 348 344 342 341 340 340 339 337 338 336 336 335 334 332 330 327 325 324 324 325 324 321 317
35 44 41 30 9 7 4 2 358 353 349 345 345 346 346 344 343 342 340 340 339 338 338 336 332 330 327 323 322 322 314 313 312
44 37 29 17 15 10 3 357 351 348 347 347 348 347 348 348 348 348 346 344 342 345 343 339 335 331 327 324 321 319 316 314 311
40 31 21 12 6 1 356 354 354 353 353 352 351 353 354 355 355 354 352 349 346 342 342 343 341 337 332 327 322 321 318 312 312